| time (UTC) | temp C | wind direction | speed KPH | gust KPH | rain 1hr cm | rain 24hr cm | rain mn cm | humidity % | barometer mb |
| 20260505235520 | 7 | 328 | 8.0 | 11.3 | 0.13 | 0.53 | 0.53 | 97 | 1010.2 |
| 20260505235016 | 7 | 60 | 3.2 | 9.7 | 0.00 | 0.51 | 0.51 | 97 | 1009.9 |
| 20260505234513 | 7 | 26 | 4.8 | 8.0 | 0.18 | 0.51 | 0.51 | 97 | 1009.8 |
| 20260505234010 | 7 | 83 | 4.8 | 4.8 | 0.18 | 0.51 | 0.51 | 97 | 1009.9 |
| 20260505233508 | 7 | 37 | 3.2 | 8.0 | 0.00 | 0.48 | 0.48 | 97 | 1010.2 |
| 20260505233005 | 7 | 327 | 6.4 | 12.9 | 0.00 | 0.48 | 0.48 | 97 | 1010.3 |
| 20260505232503 | 7 | 287 | 8.0 | 12.9 | 0.00 | 0.48 | 0.48 | 97 | 1010.3 |
| 20260505232000 | 7 | 5 | 3.2 | 8.0 | 0.00 | 0.48 | 0.48 | 97 | 1010.2 |
| 20260505231457 | 7 | 34 | 4.8 | 8.0 | 0.00 | 0.48 | 0.48 | 97 | 1009.9 |
| 20260505230955 | 7 | 18 | 6.4 | 9.7 | 0.00 | 0.48 | 0.48 | 97 | 1009.7 |
| 20260505230452 | 7 | 44 | 3.2 | 4.8 | 0.00 | 0.48 | 0.48 | 97 | 1009.6 |
| 20260505225948 | 7 | 334 | 6.4 | 9.7 | 0.00 | 0.48 | 0.48 | 97 | 1009.4 |
| 20260505225446 | 7 | 341 | 3.2 | 12.9 | 0.00 | 0.48 | 0.48 | 96 | 1009.4 |
| 20260505224942 | 7 | 45 | 6.4 | 9.7 | 0.13 | 0.48 | 0.48 | 96 | 1009.7 |
| 20260505224439 | 8 | 29 | 3.2 | 11.3 | 0.00 | 0.46 | 0.46 | 95 | 1009.9 |
| 20260505223936 | 8 | 29 | 4.8 | 11.3 | 0.48 | 0.46 | 0.46 | 94 | 1009.8 |
| 20260505223433 | 8 | 12 | 4.8 | 4.8 | 0.30 | 0.43 | 0.43 | 94 | 1010.0 |
| 20260505222929 | 8 | 23 | 4.8 | 8.0 | 0.00 | 0.38 | 0.38 | 93 | 1010.0 |
| 20260505222426 | 8 | 33 | 6.4 | 12.9 | 0.00 | 0.38 | 0.38 | 93 | 1009.7 |
| 20260505221921 | 8 | 0 | 8.0 | 16.1 | 0.00 | 0.38 | 0.38 | 94 | 1010.0 |
| 20260505221419 | 8 | 18 | 4.8 | 9.7 | 0.00 | 0.38 | 0.38 | 94 | 1009.8 |
| 20260505220916 | 8 | 117 | 3.2 | 3.2 | 0.00 | 0.38 | 0.38 | 94 | 1009.2 |
| 20260505220413 | 8 | 101 | 3.2 | 8.0 | 0.00 | 0.38 | 0.38 | 94 | 1009.4 |
| 20260505215911 | 8 | 32 | 1.6 | 9.7 | 0.00 | 0.38 | 0.38 | 94 | 1009.5 |
| 20260505215408 | 8 | 18 | 4.8 | 9.7 | 0.00 | 0.38 | 0.38 | 93 | 1009.5 |
| 20260505214906 | 8 | 357 | 4.8 | 11.3 | 0.00 | 0.38 | 0.38 | 92 | 1009.6 |
| 20260505214403 | 9 | 53 | 3.2 | 8.0 | 0.00 | 0.38 | 0.38 | 92 | 1009.4 |
| 20260505213900 | 9 | 30 | 1.6 | 9.7 | 0.00 | 0.38 | 0.38 | 91 | 1009.3 |
| 20260505213358 | 9 | 71 | 4.8 | 11.3 | 0.00 | 0.38 | 0.38 | 89 | 1009.6 |
| 20260505212854 | 9 | 149 | 1.6 | 8.0 | 0.00 | 0.38 | 0.38 | 89 | 1009.9 |
| 20260505212351 | 9 | 4 | 4.8 | 9.7 | 0.00 | 0.38 | 0.38 | 89 | 1009.7 |
| 20260505211847 | 9 | 8 | 3.2 | 11.3 | 0.00 | 0.38 | 0.38 | 89 | 1009.8 |
| 20260505211345 | 9 | 24 | 1.6 | 8.0 | 0.00 | 0.38 | 0.38 | 88 | 1009.4 |
| 20260505210841 | 9 | 0 | 8.0 | 9.7 | 0.00 | 0.38 | 0.38 | 88 | 1009.6 |
| 20260505210339 | 9 | 8 | 4.8 | 8.0 | 0.00 | 0.38 | 0.38 | 88 | 1009.4 |
| 20260505205835 | 9 | 1 | 4.8 | 14.5 | 0.00 | 0.38 | 0.38 | 88 | 1009.3 |
| 20260505205334 | 9 | 352 | 4.8 | 11.3 | 0.00 | 0.38 | 0.38 | 88 | 1009.4 |
| 20260505204830 | 9 | 184 | 4.8 | 8.0 | 0.00 | 0.38 | 0.38 | 88 | 1009.2 |
| 20260505204328 | 9 | 2 | 4.8 | 8.0 | 0.00 | 0.38 | 0.38 | 88 | 1009.3 |
| 20260505203825 | 9 | 35 | 8.0 | 11.3 | 0.00 | 0.38 | 0.38 | 88 | 1009.3 |
| 20260505203321 | 9 | 313 | 8.0 | 12.9 | 0.00 | 0.38 | 0.38 | 88 | 1009.8 |
| 20260505202818 | 9 | 20 | 6.4 | 9.7 | 0.00 | 0.38 | 0.38 | 89 | 1010.0 |
| 20260505202314 | 10 | 336 | 4.8 | 8.0 | 0.00 | 0.38 | 0.38 | 90 | 1009.7 |
| 20260505201811 | 9 | 357 | 6.4 | 8.0 | 0.00 | 0.38 | 0.38 | 90 | 1009.3 |
| 20260505201308 | 9 | 358 | 8.0 | 12.9 | 0.00 | 0.38 | 0.38 | 91 | 1009.2 |
| 20260505200807 | 9 | 5 | 6.4 | 11.3 | 0.00 | 0.38 | 0.38 | 93 | 1008.7 |
| 20260505200303 | 9 | 4 | 6.4 | 14.5 | 0.00 | 0.38 | 0.38 | 94 | 1008.8 |
| 20260505195758 | 10 | 26 | 8.0 | 14.5 | 0.00 | 0.38 | 0.38 | 95 | 1008.8 |
| 20260505195256 | 10 | 165 | 3.2 | 4.8 | 0.00 | 0.38 | 0.38 | 96 | 1009.0 |
| 20260505194753 | 10 | 327 | 4.8 | 11.3 | 0.00 | 0.38 | 0.38 | 95 | 1008.7 |
| 20260505194250 | 10 | 11 | 11.3 | 12.9 | 0.00 | 0.38 | 0.38 | 95 | 1009.2 |
| 20260505193745 | 10 | 352 | 4.8 | 11.3 | 0.00 | 0.38 | 0.38 | 95 | 1009.0 |
| 20260505193243 | 10 | 359 | 8.0 | 11.3 | 0.00 | 0.38 | 0.38 | 94 | 1009.4 |
| 20260505192741 | 10 | 327 | 11.3 | 14.5 | 0.00 | 0.38 | 0.38 | 93 | 1009.4 |
| 20260505192239 | 10 | 1 | 8.0 | 12.9 | 0.00 | 0.38 | 0.38 | 92 | 1009.4 |
| 20260505191737 | 10 | 350 | 4.8 | 9.7 | 0.00 | 0.38 | 0.38 | 91 | 1009.4 |
| 20260505191235 | 11 | 343 | 4.8 | 9.7 | 0.00 | 0.38 | 0.38 | 90 | 1009.2 |
| 20260505190731 | 11 | 347 | 3.2 | 9.7 | 0.00 | 0.38 | 0.38 | 89 | 1009.0 |
| 20260505190231 | 11 | 342 | 11.3 | 16.1 | 0.00 | 0.38 | 0.38 | 88 | 1009.0 |
| 20260505185728 | 11 | 2 | 6.4 | 9.7 | 0.00 | 0.38 | 0.38 | 88 | 1008.9 |
| 20260505185224 | 11 | 25 | 8.0 | 14.5 | 0.00 | 0.38 | 0.38 | 86 | 1008.7 |
| 20260505184720 | 11 | 56 | 6.4 | 11.3 | 0.00 | 0.38 | 0.38 | 86 | 1008.7 |
| 20260505184218 | 11 | 54 | 3.2 | 9.7 | 0.00 | 0.38 | 0.38 | 85 | 1008.7 |
| 20260505183714 | 11 | 32 | 3.2 | 8.0 | 0.00 | 0.38 | 0.38 | 86 | 1009.0 |
| 20260505183212 | 11 | 347 | 8.0 | 12.9 | 0.00 | 0.38 | 0.38 | 85 | 1009.0 |
| 20260505182708 | 11 | 320 | 6.4 | 9.7 | 0.00 | 0.38 | 0.38 | 85 | 1009.2 |
| 20260505182205 | 11 | 329 | 6.4 | 9.7 | 0.00 | 0.38 | 0.38 | 85 | 1008.9 |
| 20260505181701 | 11 | 15 | 4.8 | 4.8 | 0.00 | 0.38 | 0.38 | 86 | 1009.0 |
| 20260505181159 | 11 | 355 | 4.8 | 11.3 | 0.00 | 0.38 | 0.38 | 86 | 1008.8 |
| 20260505180655 | 12 | 19 | 3.2 | 8.0 | 0.00 | 0.38 | 0.38 | 86 | 1008.5 |
| 20260505180153 | 11 | 354 | 11.3 | 17.7 | 0.00 | 0.38 | 0.38 | 86 | 1008.9 |
| 20260505175648 | 12 | 339 | 4.8 | 9.7 | 0.00 | 0.38 | 0.38 | 85 | 1008.5 |
| 20260505175145 | 12 | 10 | 6.4 | 9.7 | 0.00 | 0.38 | 0.38 | 84 | 1008.5 |
| 20260505174642 | 12 | 301 | 4.8 | 12.9 | 0.00 | 0.38 | 0.38 | 82 | 1008.8 |
| 20260505174138 | 12 | 16 | 4.8 | 9.7 | 0.00 | 0.38 | 0.38 | 82 | 1008.4 |
| 20260505173635 | 13 | 342 | 9.7 | 12.9 | 0.00 | 0.38 | 0.38 | 81 | 1008.7 |
| 20260505173131 | 13 | 349 | 8.0 | 11.3 | 0.00 | 0.38 | 0.38 | 81 | 1008.6 |
| 20260505172629 | 13 | 352 | 4.8 | 12.9 | 0.00 | 0.38 | 0.38 | 82 | 1008.6 |
| 20260505172126 | 13 | 24 | 4.8 | 12.9 | 0.00 | 0.38 | 0.38 | 83 | 1008.8 |
| 20260505171620 | 12 | 349 | 8.0 | 9.7 | 0.00 | 0.38 | 0.38 | 82 | 1008.9 |
| 20260505171112 | 12 | 44 | 3.2 | 9.7 | 0.00 | 0.38 | 0.38 | 83 | 1008.7 |
| 20260505170609 | 12 | 9 | 3.2 | 9.7 | 0.00 | 0.38 | 0.38 | 84 | 1008.5 |
| 20260505170106 | 12 | 354 | 8.0 | 16.1 | 0.00 | 0.38 | 0.38 | 83 | 1008.7 |
| 20260505165600 | 12 | 29 | 6.4 | 9.7 | 0.00 | 0.38 | 0.38 | 83 | 1008.6 |
| 20260505165056 | 12 | 358 | 6.4 | 9.7 | 0.00 | 0.38 | 0.38 | 83 | 1008.6 |
| 20260505164552 | 12 | 325 | 8.0 | 11.3 | 0.00 | 0.38 | 0.38 | 83 | 1008.6 |
| 20260505164050 | 12 | 316 | 8.0 | 12.9 | 0.00 | 0.38 | 0.38 | 83 | 1008.3 |
| 20260505163543 | 13 | 359 | 8.0 | 14.5 | 0.00 | 0.38 | 0.38 | 83 | 1008.3 |
| 20260505163039 | 13 | 29 | 6.4 | 12.9 | 0.00 | 0.38 | 0.38 | 83 | 1008.3 |
| 20260505162532 | 13 | 271 | 12.9 | 14.5 | 0.00 | 0.38 | 0.38 | 82 | 1008.4 |
| 20260505162030 | 13 | 355 | 9.7 | 14.5 | 0.00 | 0.38 | 0.38 | 83 | 1008.5 |
| 20260505161526 | 13 | 16 | 4.8 | 9.7 | 0.00 | 0.38 | 0.38 | 83 | 1008.3 |
| 20260505161023 | 13 | 84 | 4.8 | 8.0 | 0.00 | 0.38 | 0.38 | 83 | 1008.6 |
| 20260505160521 | 13 | 113 | 4.8 | 11.3 | 0.00 | 0.38 | 0.38 | 83 | 1008.7 |
| 20260505152957 | 14 | 313 | 3.2 | 9.7 | 0.00 | 0.38 | 0.38 | 82 | 1008.2 |
| 20260505152454 | 14 | 353 | 6.4 | 11.3 | 0.00 | 0.38 | 0.38 | 82 | 1007.9 |
| 20260505151949 | 14 | 293 | 8.0 | 11.3 | 0.00 | 0.38 | 0.38 | 82 | 1008.0 |
| 20260505151445 | 15 | 333 | 4.8 | 8.0 | 0.00 | 0.38 | 0.38 | 82 | 1007.6 |
| 20260505150942 | 15 | 338 | 4.8 | 9.7 | 0.00 | 0.38 | 0.38 | 82 | 1007.7 |
| 20260505150439 | 15 | 55 | 3.2 | 8.0 | 0.00 | 0.38 | 0.38 | 83 | 1007.3 |
| 20260505140409 | 13 | 166 | 1.6 | 3.2 | 0.00 | 0.38 | 0.38 | 87 | 1007.9 |
| 20260505124823 | 13 | 43 | 3.2 | 4.8 | 0.00 | 0.38 | 0.38 | 90 | 1007.3 |
| 20260505124320 | 14 | 139 | 1.6 | 1.6 | 0.00 | 0.38 | 0.38 | 91 | 1007.5 |
| 20260505123816 | 14 | 10 | 4.8 | 4.8 | 0.00 | 0.38 | 0.38 | 92 | 1007.0 |
| 20260505123313 | 13 | 182 | 0.0 | 8.0 | 0.00 | 0.38 | 0.38 | 93 | 1007.3 |
| 20260505122809 | 13 | 330 | 3.2 | 4.8 | 0.00 | 0.38 | 0.38 | 93 | 1006.9 |
| 20260505122306 | 13 | 12 | 3.2 | 4.8 | 0.00 | 0.38 | 0.38 | 94 | 1007.0 |
| 20260505121802 | 13 | 4 | 1.6 | 8.0 | 0.00 | 0.38 | 0.38 | 95 | 1006.8 |
| 20260505121259 | 14 | 138 | 1.6 | 1.6 | 0.00 | 0.38 | 0.38 | 95 | 1006.6 |
| 20260505120755 | 13 | 351 | 3.2 | 3.2 | 0.00 | 0.38 | 0.38 | 95 | 1006.1 |
| 20260505120252 | 13 | 348 | 4.8 | 4.8 | 0.00 | 0.38 | 0.38 | 94 | 1006.3 |
| 20260505115750 | 13 | 347 | 3.2 | 8.0 | 0.00 | 0.38 | 0.38 | 94 | 1006.8 |
| 20260505115248 | 13 | 93 | 1.6 | 4.8 | 0.00 | 0.38 | 0.38 | 94 | 1006.6 |
| 20260505114745 | 13 | 21 | 0.0 | 0.0 | 0.00 | 0.38 | 0.38 | 95 | 1006.6 |
| 20260505114241 | 13 | 24 | 0.0 | 0.0 | 0.00 | 0.38 | 0.38 | 95 | 1006.5 |
| 20260505113738 | 14 | 25 | 0.0 | 0.0 | 0.00 | 0.38 | 0.38 | 96 | 1006.5 |
| 20260505113235 | 14 | 52 | 0.0 | 1.6 | 0.00 | 0.38 | 0.38 | 96 | 1006.9 |
| 20260505112731 | 14 | 58 | 0.0 | 0.0 | 0.00 | 0.38 | 0.38 | 96 | 1006.8 |
| 20260505112229 | 15 | 306 | 0.0 | 0.0 | 0.00 | 0.38 | 0.38 | 96 | 1006.1 |
| 20260505111728 | 15 | 347 | 0.0 | 0.0 | 0.13 | 0.38 | 0.38 | 96 | 1006.1 |
| 20260505111225 | 15 | 42 | 0.0 | 4.8 | 0.13 | 0.38 | 0.38 | 96 | 1006.2 |
| 20260505110720 | 15 | 173 | 0.0 | 0.0 | 0.00 | 0.36 | 0.36 | 97 | 1005.8 |
| 20260505110218 | 15 | 334 | 0.0 | 3.2 | 0.00 | 0.36 | 0.36 | 97 | 1005.7 |
| 20260505102154 | 15 | 161 | 0.0 | 1.6 | 0.00 | 0.33 | 0.33 | 95 | 1006.2 |
| 20260505101652 | 15 | 168 | 0.0 | 3.2 | 0.18 | 0.33 | 0.33 | 94 | 1006.0 |
| 20260505101148 | 15 | 112 | 1.6 | 3.2 | 0.18 | 0.33 | 0.33 | 94 | 1006.2 |
| 20260505100644 | 15 | 53 | 1.6 | 8.0 | 0.00 | 0.30 | 0.30 | 93 | 1006.1 |
| 20260505100142 | 15 | 138 | 3.2 | 8.0 | 0.00 | 0.30 | 0.30 | 92 | 1006.3 |
| 20260505095637 | 15 | 61 | 4.8 | 4.8 | 0.00 | 0.30 | 0.30 | 92 | 1006.0 |
| 20260505095135 | 15 | 178 | 0.0 | 1.6 | 0.00 | 0.30 | 0.30 | 91 | 1005.6 |
| 20260505094631 | 15 | 187 | 0.0 | 1.6 | 0.00 | 0.30 | 0.30 | 90 | 1005.1 |
| 20260505094127 | 16 | 162 | 0.0 | 3.2 | 0.00 | 0.30 | 0.30 | 89 | 1005.4 |
| 20260505093624 | 16 | 186 | 3.2 | 8.0 | 0.13 | 0.30 | 0.30 | 88 | 1005.2 |
| 20260505093121 | 16 | 181 | 8.0 | 11.3 | 0.13 | 0.30 | 0.30 | 87 | 1005.1 |
| 20260505092618 | 16 | 199 | 4.8 | 8.0 | 0.00 | 0.28 | 0.28 | 85 | 1004.9 |
| 20260505092117 | 16 | 189 | 4.8 | 11.3 | 0.00 | 0.28 | 0.28 | 83 | 1004.8 |
| 20260505091613 | 16 | 160 | 6.4 | 9.7 | 0.00 | 0.28 | 0.28 | 84 | 1004.7 |
| 20260505091111 | 15 | 175 | 3.2 | 9.7 | 0.00 | 0.28 | 0.28 | 88 | 1004.6 |
| 20260505090609 | 16 | 163 | 1.6 | 11.3 | 0.00 | 0.28 | 0.28 | 88 | 1004.5 |
| 20260505090107 | 15 | 203 | 6.4 | 14.5 | 0.00 | 0.28 | 0.28 | 90 | 1003.8 |
| 20260505085604 | 15 | 177 | 8.0 | 14.5 | 0.00 | 0.28 | 0.28 | 92 | 1003.2 |
| 20260505085102 | 15 | 193 | 4.8 | 22.5 | 0.00 | 0.28 | 0.28 | 95 | 1003.6 |
| 20260505084600 | 15 | 177 | 11.3 | 14.5 | 0.18 | 0.28 | 0.28 | 97 | 1003.6 |
| 20260505084058 | 15 | 199 | 4.8 | 11.3 | 0.13 | 0.25 | 0.25 | 97 | 1004.4 |
| 20260505083555 | 15 | 193 | 11.3 | 22.5 | 0.13 | 0.25 | 0.25 | 96 | 1005.1 |
| 20260505083051 | 15 | 176 | 9.7 | 16.1 | 0.18 | 0.23 | 0.23 | 96 | 1005.7 |
| 20260505082547 | 15 | 181 | 6.4 | 8.0 | 0.18 | 0.23 | 0.23 | 96 | 1006.1 |
| 20260505082044 | 16 | 171 | 4.8 | 8.0 | 0.13 | 0.20 | 0.20 | 96 | 1006.0 |
| 20260505081540 | 16 | 165 | 4.8 | 8.0 | 0.18 | 0.18 | 0.18 | 96 | 1006.2 |
| 20260505081038 | 16 | 265 | 6.4 | 14.5 | 0.18 | 0.18 | 0.18 | 96 | 1005.8 |
| 20260505080534 | 16 | 175 | 3.2 | 8.0 | 0.13 | 0.15 | 0.15 | 96 | 1006.0 |
| 20260505080031 | 16 | 320 | 4.8 | 12.9 | 0.30 | 0.15 | 0.15 | 95 | 1006.1 |
| 20260505075527 | 16 | 199 | 4.8 | 16.1 | 0.18 | 0.13 | 0.13 | 95 | 1005.9 |
| 20260505075024 | 16 | 182 | 4.8 | 25.7 | 0.13 | 0.10 | 0.10 | 94 | 1005.9 |
| 20260505074521 | 16 | 255 | 4.8 | 20.9 | 0.18 | 0.08 | 0.08 | 92 | 1005.7 |
| 20260505074018 | 16 | 190 | 9.7 | 12.9 | 0.18 | 0.08 | 0.08 | 91 | 1005.8 |
| 20260505073515 | 16 | 183 | 9.7 | 16.1 | 0.13 | 0.05 | 0.05 | 89 | 1005.8 |
| 20260505073014 | 17 | 176 | 11.3 | 17.7 | 0.13 | 0.05 | 0.05 | 88 | 1006.0 |
| 20260505072509 | 17 | 207 | 3.2 | 8.0 | 0.18 | 0.03 | 0.03 | 85 | 1005.8 |
| 20260505072005 | 17 | 113 | 8.0 | 12.9 | 0.00 | 0.00 | 0.00 | 84 | 1005.6 |
| 20260505071501 | 17 | 185 | 16.1 | 20.9 | 0.00 | 0.00 | 0.00 | 80 | 1005.9 |
| 20260505070959 | 17 | 193 | 9.7 | 16.1 | 0.00 | 0.00 | 0.00 | 80 | 1006.0 |
| 20260505070456 | 18 | 170 | 4.8 | 9.7 | 0.00 | 0.00 | 0.00 | 78 | 1005.9 |
| 20260505065951 | 18 | 199 | 8.0 | 11.3 | 0.00 | 0.00 | 0.00 | 78 | 1005.6 |
| 20260505065448 | 17 | 187 | 1.6 | 4.8 | 0.00 | 0.00 | 0.00 | 78 | 1005.7 |
| 20260505064945 | 18 | 184 | 1.6 | 9.7 | 0.00 | 0.00 | 0.00 | 78 | 1005.6 |
| 20260505064442 | 18 | 183 | 1.6 | 4.8 | 0.00 | 0.00 | 0.00 | 77 | 1005.3 |
| 20260505063940 | 18 | 191 | 4.8 | 11.3 | 0.00 | 0.00 | 0.00 | 77 | 1005.7 |
| 20260505063436 | 18 | 189 | 1.6 | 3.2 | 0.00 | 0.00 | 0.00 | 77 | 1005.9 |
| 20260505062933 | 18 | 163 | 1.6 | 4.8 | 0.00 | 0.00 | 0.00 | 78 | 1005.7 |
| 20260505062430 | 17 | 189 | 6.4 | 8.0 | 0.00 | 0.00 | 0.00 | 78 | 1006.0 |
| 20260505061926 | 17 | 191 | 3.2 | 4.8 | 0.00 | 0.00 | 0.00 | 78 | 1006.1 |
| 20260505061425 | 17 | 187 | 6.4 | 8.0 | 0.00 | 0.00 | 0.00 | 78 | 1005.9 |
| 20260505060922 | 17 | 186 | 4.8 | 8.0 | 0.00 | 0.00 | 0.00 | 77 | 1006.2 |
| 20260505060419 | 17 | 166 | 1.6 | 4.8 | 0.00 | 0.00 | 0.00 | 77 | 1006.1 |
| 20260505055915 | 17 | 178 | 0.0 | 3.2 | 0.00 | 0.00 | 0.00 | 78 | 1006.0 |
| 20260505055412 | 17 | 187 | 3.2 | 8.0 | 0.00 | 0.00 | 0.00 | 77 | 1005.8 |
| 20260505054908 | 17 | 180 | 6.4 | 12.9 | 0.00 | 0.00 | 0.00 | 77 | 1005.9 |
| 20260505054406 | 17 | 174 | 0.0 | 9.7 | 0.00 | 0.00 | 0.00 | 77 | 1005.9 |
| 20260505053904 | 17 | 187 | 1.6 | 3.2 | 0.00 | 0.00 | 0.00 | 77 | 1006.0 |
| 20260505053401 | 17 | 175 | 0.0 | 8.0 | 0.00 | 0.00 | 0.00 | 77 | 1006.2 |
| 20260505052857 | 17 | 168 | 1.6 | 4.8 | 0.00 | 0.00 | 0.00 | 76 | 1006.1 |
| 20260505052354 | 17 | 194 | 1.6 | 3.2 | 0.00 | 0.00 | 0.00 | 77 | 1006.2 |
| 20260505051851 | 17 | 152 | 0.0 | 8.0 | 0.00 | 0.00 | 0.00 | 77 | 1006.0 |
| 20260505051348 | 18 | 139 | 3.2 | 8.0 | 0.00 | 0.00 | 0.00 | 76 | 1005.9 |
| 20260505050847 | 18 | 177 | 1.6 | 11.3 | 0.00 | 0.00 | 0.00 | 76 | 1006.1 |
| 20260505050345 | 18 | 189 | 6.4 | 8.0 | 0.00 | 0.00 | 0.00 | 76 | 1006.2 |
| 20260505041312 | 18 | 169 | 3.2 | 3.2 | 0.00 | 0.00 | 0.00 | 75 | 1006.7 |
| 20260505040809 | 18 | 182 | 1.6 | 3.2 | 0.00 | 0.00 | 0.00 | 74 | 1006.7 |
| 20260505040307 | 18 | 191 | 1.6 | 1.6 | 0.00 | 0.00 | 0.00 | 73 | 1006.9 |
| 20260505035803 | 18 | 181 | 1.6 | 3.2 | 0.00 | 0.00 | 0.00 | 73 | 1007.2 |
| 20260505035259 | 18 | 161 | 4.8 | 8.0 | 0.00 | 0.00 | 0.00 | 72 | 1007.0 |
| 20260505034756 | 18 | 191 | 4.8 | 4.8 | 0.00 | 0.00 | 0.00 | 72 | 1007.2 |
| 20260505034253 | 19 | 182 | 3.2 | 4.8 | 0.00 | 0.00 | 0.00 | 72 | 1007.2 |
| 20260505033749 | 19 | 183 | 1.6 | 3.2 | 0.00 | 0.00 | 0.00 | 72 | 1007.5 |
| 20260505033247 | 19 | 156 | 1.6 | 8.0 | 0.00 | 0.00 | 0.00 | 71 | 1007.2 |
| 20260505032745 | 19 | 191 | 4.8 | 4.8 | 0.00 | 0.00 | 0.00 | 71 | 1007.4 |
| 20260505032241 | 19 | 174 | 3.2 | 8.0 | 0.00 | 0.00 | 0.00 | 71 | 1007.1 |
| 20260505031739 | 19 | 170 | 0.0 | 3.2 | 0.00 | 0.00 | 0.00 | 71 | 1007.2 |
| 20260505031235 | 20 | 160 | 1.6 | 4.8 | 0.00 | 0.00 | 0.00 | 71 | 1007.2 |
| 20260505030732 | 20 | 178 | 3.2 | 9.7 | 0.00 | 0.00 | 0.00 | 71 | 1007.1 |
| 20260505030228 | 20 | 184 | 3.2 | 4.8 | 0.00 | 0.00 | 0.00 | 71 | 1007.3 |
| 20260505025724 | 20 | 187 | 3.2 | 9.7 | 0.00 | 0.00 | 0.00 | 71 | 1007.2 |
| 20260505025222 | 20 | 185 | 1.6 | 8.0 | 0.00 | 0.00 | 0.00 | 71 | 1007.2 |
| 20260505024720 | 20 | 182 | 6.4 | 8.0 | 0.00 | 0.00 | 0.00 | 71 | 1007.1 |
| 20260505024217 | 20 | 179 | 6.4 | 9.7 | 0.00 | 0.00 | 0.00 | 71 | 1007.0 |
| 20260505023714 | 20 | 177 | 1.6 | 4.8 | 0.00 | 0.00 | 0.00 | 71 | 1006.9 |
| 20260505023211 | 20 | 170 | 1.6 | 4.8 | 0.00 | 0.00 | 0.00 | 71 | 1006.9 |
| 20260505022709 | 20 | 180 | 4.8 | 8.0 | 0.00 | 0.00 | 0.00 | 70 | 1006.9 |
| 20260505022205 | 20 | 197 | 3.2 | 8.0 | 0.00 | 0.00 | 0.00 | 71 | 1006.8 |
| 20260505021702 | 20 | 206 | 1.6 | 4.8 | 0.00 | 0.00 | 0.00 | 70 | 1006.7 |
| 20260505021159 | 20 | 179 | 1.6 | 1.6 | 0.00 | 0.00 | 0.00 | 70 | 1006.6 |
| 20260505020655 | 20 | 181 | 0.0 | 3.2 | 0.00 | 0.00 | 0.00 | 69 | 1006.7 |
| 20260505020151 | 20 | 167 | 1.6 | 3.2 | 0.00 | 0.00 | 0.00 | 69 | 1006.5 |
| 20260505015648 | 20 | 180 | 1.6 | 1.6 | 0.00 | 0.00 | 0.00 | 69 | 1006.5 |
| 20260505015144 | 20 | 188 | 1.6 | 3.2 | 0.00 | 0.00 | 0.00 | 68 | 1006.5 |
| 20260505014641 | 20 | 187 | 1.6 | 3.2 | 0.00 | 0.00 | 0.00 | 67 | 1006.6 |
| 20260505014138 | 20 | 185 | 0.0 | 0.0 | 0.00 | 0.00 | 0.00 | 67 | 1006.3 |
| 20260505013636 | 20 | 187 | 0.0 | 0.0 | 0.00 | 0.00 | 0.00 | 66 | 1006.2 |
| 20260505013133 | 20 | 189 | 1.6 | 1.6 | 0.00 | 0.00 | 0.00 | 66 | 1006.0 |
| 20260505012631 | 21 | 179 | 0.0 | 0.0 | 0.00 | 0.00 | 0.00 | 66 | 1006.0 |
| 20260505012128 | 21 | 171 | 0.0 | 1.6 | 0.00 | 0.00 | 0.00 | 65 | 1005.8 |
| 20260505011623 | 21 | 199 | 0.0 | 1.6 | 0.00 | 0.00 | 0.00 | 64 | 1005.9 |
| 20260505011121 | 21 | 183 | 0.0 | 1.6 | 0.00 | 0.00 | 0.00 | 63 | 1006.0 |
| 20260505010616 | 21 | 179 | 0.0 | 1.6 | 0.00 | 0.00 | 0.00 | 63 | 1005.7 |
| 20260505010113 | 21 | 170 | 1.6 | 3.2 | 0.00 | 0.00 | 0.00 | 63 | 1005.8 |
| 20260505005609 | 21 | 175 | 0.0 | 3.2 | 0.00 | 0.00 | 0.00 | 62 | 1005.7 |
| 20260505005107 | 21 | 192 | 0.0 | 1.6 | 0.00 | 0.00 | 0.00 | 62 | 1005.7 |
| 20260505004604 | 22 | 177 | 0.0 | 1.6 | 0.00 | 0.00 | 0.00 | 62 | 1005.6 |
| 20260505004100 | 22 | 182 | 1.6 | 3.2 | 0.00 | 0.00 | 0.00 | 60 | 1005.6 |
| 20260505003557 | 22 | 188 | 1.6 | 3.2 | 0.00 | 0.00 | 0.00 | 60 | 1005.7 |
| 20260505003055 | 22 | 173 | 1.6 | 4.8 | 0.00 | 0.00 | 0.00 | 59 | 1005.7 |
| 20260505002549 | 22 | 210 | 3.2 | 4.8 | 0.00 | 0.00 | 0.00 | 59 | 1005.6 |
| 20260505002043 | 22 | 169 | 3.2 | 3.2 | 0.00 | 0.00 | 0.00 | 58 | 1005.7 |
| 20260505001539 | 22 | 164 | 4.8 | 8.0 | 0.00 | 0.00 | 0.00 | 57 | 1005.2 |
| 20260505001037 | 23 | 194 | 4.8 | 9.7 | 0.00 | 0.00 | 0.00 | 56 | 1005.5 |
| 20260505000534 | 23 | 177 | 9.7 | 11.3 | 0.00 | 0.00 | 0.00 | 56 | 1005.4 |
| 20260505000032 | 23 | 153 | 4.8 | 8.0 | 0.00 | 0.00 | 0.00 | 57 | 1005.4 |